Regional Weather Roundup
Issued by NWS

Home | Current Version | Previous Version | Graphics & Text | Print | Product List | Glossary On
Versions: 1 2 3 4 5 6 7 8 9 10 11 12 13 14 15 16 17 18 19 20 21 22 23 24 25 26 27 28 29 30 31 32 33 34 35 36 37 38 39 40 41 42 43 44 45 46 47 48 49 50
000
ASUS43 KMKX 291621
RWRWI

WISCONSIN REGIONAL WEATHER ROUNDUP
NATIONAL WEATHER SERVICE MILWAUKEE/SULLIVAN WI
1100 AM CDT THU SEP 29 2016

NOTE: "FAIR" INDICATES FEW OR NO CLOUDS BELOW 12,000 FEET WITH NO
SIGNIFICANT WEATHER AND/OR OBSTRUCTIONS TO VISIBILITY.

WIZ001-002-006>008-014>016-023>028-291700-
NORTHWEST WISCONSIN

CITY           SKY/WX    TMP DP  RH WIND       PRES   REMARKS
SUPERIOR ARPT  CLOUDY    58  52  81 E9        30.53R
ASHLAND        CLOUDY    59  52  77 E13       30.52S
HAYWARD        CLOUDY    57  50  77 NE13      30.50S
SIREN          MOSUNNY   58  49  73 NE10      30.50S
CUMBERLAND     CLOUDY    55  50  82 NE13      30.48S
RICE LAKE      MOSUNNY   60  50  69 N9        30.49S
CHETEK         NOT AVBL
LADYSMITH      PTSUNNY   58  52  81 NE9       30.49S
EAU CLAIRE     MOSUNNY   57  50  77 NE9       30.46R
MENOMONIE      SUNNY     62  51  66 N8        30.46S
NEW RICHMOND   PTSUNNY   57  51  79 NE10      30.48S
OSCEOLA        PTSUNNY   59  49  69 NE12      30.51S
$$

WIZ003>005-009-010-017-018-291700-
NORTH CENTRAL WISCONSIN

CITY           SKY/WX    TMP DP  RH WIND       PRES   REMARKS
MANITOWISH WTR NOT AVBL
ARBOR VITAE    MOSUNNY   59  52  77 E8        30.48S
WOODRUFF       MOSUNNY   59  52  77 E8        30.48S
RHINELANDER    MOSUNNY   58  52  80 NE8       30.48R
EAGLE RIVER    MOSUNNY   55  51  86 N10       30.48S
LAND O LAKES   CLOUDY    55  51  85 NE8       30.51R
PHILLIPS       PTSUNNY   57  51  80 N9        30.47F
TOMAHAWK       MOSUNNY   57  50  75 NE7       30.48R
MEDFORD        SUNNY     57  54  88 N12       30.45R
MERRILL        SUNNY     59  52  76 N10       30.46S
$$

WIZ029-030-035-036-043>047-291700-
CENTRAL WISCONSIN

CITY           SKY/WX    TMP DP  RH WIND       PRES   REMARKS
WAUSAU         SUNNY     60  51  72 VRB7      30.42S
MOSINEE        MOSUNNY   59  54  82 NE13      30.43S
MARSHFIELD     SUNNY     60  49  66 N10       30.42R
STEVENS POINT  SUNNY     61  51  69 N10       30.41S
WAUPACA        SUNNY     68  53  57 N8G18     30.38S
WAUTOMA        SUNNY     65  53  65 N10G18    30.36F
WISC RAPIDS    SUNNY     64  52  64 N10       30.41S
CAMP DOUGLAS   SUNNY     63  54  72 N8        30.39S
$$

WIZ011>013-019>022-031-037>040-048>050-291700-
NORTHEAST WISCONSIN

CITY           SKY/WX    TMP DP  RH WIND       PRES   REMARKS
ANTIGO         SUNNY     60  52  76 NE8       30.44S
SHAWANO        SUNNY     66  54  65 NE10      30.40S
OCONTO         NOT AVBL
STURGEON BAY   SUNNY     66  56  70 NE12      30.38S
GREEN BAY      LGT RAIN  63  57  81 N20G28    30.37S
MANITOWOC      MOSUNNY   66  58  75 N15G26    30.33S
APPLETON       MOSUNNY   63  52  67 NE17G25   30.35R
CLINTONVILLE   SUNNY     66  52  59 NE10      30.38F
OSHKOSH        MOSUNNY   62  55  77 NE15G24   30.35R
$$

WIZ032>034-041-042-053>061-291700-
SOUTHWEST WISCONSIN

CITY           SKY/WX    TMP DP  RH WIND       PRES   REMARKS
LA CROSSE      SUNNY     61  51  70 NW10      30.42S
SPARTA         SUNNY     59  51  74 N7        30.42S
VIROQUA        SUNNY     62  51  66 N12       30.40R
BOSCOBEL       SUNNY     66  51  58 NE9       30.36F
PRAIRIE DU CHI SUNNY     64  50  61 NW8       30.36F
PLATTEVILLE    SUNNY     64  55  72 N17G24    30.32F
$$

WIZ056-057-062-063-064-067-068-291700-
SOUTH CENTRAL WISCONSIN

CITY           SKY/WX    TMP DP  RH WIND       PRES   REMARKS
REEDSBURG      NOT AVBL
BARABOO/DELLS  SUNNY     65  51  62 NE12G17   30.35S
LONE ROCK      SUNNY     66  52  60 N10       30.35F
MINERAL POINT  SUNNY     64  54  68 N13       30.33S
MADISON        MOSUNNY   62  54  74 N17G23    30.31S
MIDDLETON      SUNNY     64  54  71 N14G20    30.33S
WATERTOWN      MOSUNNY   64  57  77 N14G22    30.29S
MONROE         MOSUNNY   63  54  72 N15G26    30.29S
JANESVILLE     MOSUNNY   66  88 100 N12G17    30.25S
$$

WIZ051-052-058>065-066-070>072-291700-
SOUTHEAST WISCONSIN

CITY           SKY/WX    TMP DP  RH WIND       PRES   REMARKS
MILWAUKEE      PTSUNNY   63  56  78 N14G23    30.27S
WAUKESHA       MOSUNNY   66  54  63 NE17G24   30.27S
MILWAUKEE/TIMM PTSUNNY   66  55  68 NE17G32   30.28R
RACINE         PTSUNNY   64  56  75 NE20G30   30.25S
BURLINGTON     PTSUNNY   65  54  66 NE21G30   30.24S
KENOSHA        CLOUDY    64  56  75 NE21G32   30.23S
FOND DU LAC    SUNNY     63  56  78 N17G28    30.34S
SHEBOYGAN      PTSUNNY   66  59  78 NE22G32   30.31R
WEST BEND      PTSUNNY   70  61  73 NE23G35   30.29S
JUNEAU         MOSUNNY   61  55  81 N15G24    30.32S
$$

LSZ147-162-291700-
LAKE SUPERIOR

STATION/POSITION TIME  TEMP    WIND        PRES    WAVE
                       AIR SEA DIR/SP/G            HT/PER
                 (UTC) (F)     (DEG/KT/KT) (MB)    (FT/S)
W MID LAKE BUOY  1550   55 55   50/  8/ 10 1033.5R   2/ 5
DEVILS ISLAND    1600   53      40/ 10/ 11 1034.1R
SAXON HARBOR     1500   57      40/ 11/ 13 1032.8R
$$

LMZ867-665-643>646-291700-
LAKE MICHIGAN

STATION/POSITION TIME  TEMP    WIND        PRES    WAVE
                       AIR SEA DIR/SP/G            HT/PER
                 (UTC) (F)     (DEG/KT/KT) (MB)    (FT/S)
CHAMBERS ISLAND  1500   62      20/ 19/ 21 1028.4R
S GREEN BAY BUOY 1400   59 62   50/ 17/ 21 1027.4
N MID LAKE BUOY  1550   62 66   30/ 17/ 19 1028.3R   3/ 5
NORTHPORT PIER   1540   63      20/  8/ 11 1029.1R
KEWAUNEE LAKESHO 1600   62      10/ 11/ 18 1027.3R
SHEBOYGAN LAKESH 1600   61      10/ 24/ 26 1026.0R
PORT WASHINGTON  1505   65      30/ 17/ 26 1025.7R
ATWATER BUOY     1600   56 52   20/ 14/ 19 1024.7R
MILWAUKEE LAKESH 1610   59      20/ 18/ 21   N/A
S MID LAKE BUOY  1550   64 69   40/ 21/ 27 1021.7R   7/ 8
KENOSHA   LAKESH 1600   59      20/ 20/ 22 1023.4R
$$

TC  - TEMPERATURE IN CELSIUS
VSB - VISIBILITY IN STATUTE MILES
WCI - WIND CHILL INDEX
HX  - HEAT INDEX




USA.gov is the U.S. government's official web portal to all federal, state and local government web resources and services.